Theta_e
334 339 333 325 312 311 306 309 317 315 317 322 324 321 320 322 319 314 338 340 342 341 343 345 346 348 347 346 346 346 346 344 343 341 340 339 337 337 336 336 335 334 334 333 333 334 333 333 333
334 330 326 320 308 303 305 314 313 317 321 324 323 322 320 320 330 331 336 340 342 340 341 344 344 347 348 347 346 346 347 345 342 340 338 337 337 336 336 335 334 334 333 332 332 332 332 332 333
331 327 319 313 309 302 305 313 317 320 323 323 321 325 323 322 330 334 341 341 343 338 338 343 344 347 347 347 346 345 346 345 342 339 337 336 337 337 336 335 334 334 333 332 330 330 331 331 331
326 324 319 309 306 308 310 315 319 319 320 323 322 319 326 331 331 337 341 341 341 335 334 342 345 347 347 347 346 345 344 343 341 340 338 336 336 335 334 333 333 332 332 332 331 329 329 329 329
325 322 310 308 307 307 309 316 319 318 319 320 321 318 322 332 338 341 340 340 339 333 334 342 345 346 347 347 347 347 345 344 341 340 338 337 336 335 335 333 332 332 332 331 331 332 331 330 330
318 319 307 305 307 308 312 318 319 317 318 319 318 317 323 335 337 340 340 339 339 333 335 340 340 342 344 345 346 346 346 345 342 341 339 337 337 336 334 334 333 333 332 332 332 332 332 331 331
315 313 307 308 308 307 312 319 316 315 316 316 320 314 324 330 339 340 338 340 339 333 333 338 344 342 338 340 341 343 344 343 343 342 341 340 338 338 336 334 334 333 333 333 333 332 332 331 331
318 315 308 309 307 307 314 317 318 316 315 322 323 312 316 331 338 337 337 339 338 333 331 332 338 341 343 344 335 337 339 339 339 338 337 335 334 335 334 332 333 335 335 334 334 333 333 333 333
320 309 307 308 308 309 315 314 317 318 317 318 321 320 326 336 336 333 334 336 337 335 332 331 331 335 336 337 336 334 334 335 334 333 331 331 335 334 332 330 332 335 335 335 335 334 334 334 332
313 308 308 313 313 310 313 314 315 314 315 315 318 325 330 334 331 329 329 329 331 335 333 334 333 332 333 332 336 340 339 340 338 336 336 336 334 334 332 327 328 330 330 332 332 333 333 329 328
313 308 312 312 312 313 311 311 315 313 310 314 314 320 327 330 328 329 330 331 331 335 337 336 335 334 333 333 333 335 336 338 337 336 337 336 334 334 334 334 333 332 323 329 330 330 329 329 328
307 312 313 313 310 311 310 312 310 312 313 317 317 320 327 327 328 330 331 333 335 337 337 338 338 337 336 335 333 332 332 334 334 335 335 336 335 335 334 333 333 335 333 332 332 331 331 329 329
307 310 311 309 309 310 312 310 311 312 315 316 318 319 322 325 327 331 332 334 335 334 336 338 338 338 338 337 336 335 334 334 334 334 334 334 333 334 333 333 333 332 332 331 331 330 330 330 329
307 308 308 308 309 309 308 309 310 312 315 315 315 318 321 322 325 328 330 331 333 334 335 338 337 338 339 338 338 336 337 337 336 335 334 333 333 333 332 332 332 332 332 331 330 329 328 328 329
305 302 305 307 307 307 307 305 307 313 312 311 312 313 314 319 324 326 328 330 333 334 335 336 337 339 335 337 339 338 338 338 338 336 336 334 333 332 331 331 330 330 330 330 329 328 328 327 327
301 302 298 306 305 305 306 302 308 308 308 309 309 311 310 311 312 314 318 325 331 333 334 336 336 337 336 336 339 339 339 339 339 338 337 335 333 332 331 331 330 331 330 329 328 327 326 326 326
299 295 297 298 303 304 304 304 304 307 307 307 308 309 310 310 311 308 309 310 314 322 330 333 336 336 337 338 339 339 339 339 339 339 338 337 335 333 332 332 332 332 331 330 329 328 328 327 326
294 294 297 298 299 300 300 302 303 305 305 306 307 308 307 305 304 307 308 310 310 312 317 324 330 334 336 337 338 338 338 338 338 338 338 337 336 335 334 334 333 333 332 331 331 329 330 329 328
300 297 295 296 298 298 299 300 302 303 303 303 302 303 303 304 307 308 309 310 310 311 311 312 320 327 332 334 333 332 332 333 334 336 335 335 335 334 333 332 332 332 331 330 330 329 327 326 328
299 295 295 296 298 298 296 297 299 298 298 300 300 301 301 302 304 307 308 309 310 309 310 311 313 320 327 331 334 333 333 334 334 334 334 334 333 333 332 331 330 330 330 329 328 327 325 325 326
296 294 295 295 295 296 294 293 293 296 298 299 301 301 302 301 302 305 306 308 310 310 311 311 312 316 323 328 330 331 331 330 329 331 331 333 333 333 332 331 330 329 329 327 327 326 325 321 323
294 299 296 295 293 289 294 286 291 294 295 296 297 298 300 301 302 303 304 305 306 309 311 311 313 313 316 326 328 327 325 323 326 328 330 331 333 333 333 332 332 330 329 327 327 326 326 324 320
296 297 296 296 294 292 291 287 292 293 292 293 295 297 298 299 300 301 302 304 305 307 308 309 308 309 313 315 316 319 318 319 321 320 321 323 325 326 327 329 328 328 329 330 329 327 326 325 322
298 296 295 294 292 285 291 288 288 291 292 292 294 295 296 297 298 299 301 302 303 304 305 306 305 305 308 309 311 311 312 313 314 315 316 317 319 320 321 320 322 323 324 323 323 323 323 322 322
296 292 283 282 281 282 290 288 290 291 293 293 293 295 295 296 297 297 298 299 300 300 302 302 302 301 304 305 305 305 305 308 308 308 309 309 310 311 311 312 314 318 320 322 323 321 321 322 321
292 291 285 278 280 283 286 283 286 292 293 293 294 295 296 296 296 297 298 298 298 298 298 298 298 297 299 300 301 301 301 302 303 303 304 303 304 305 306 307 308 310 311 313 317 319 321 323 322
290 286 291 284 282 283 284 286 289 291 290 291 291 293 293 294 295 296 297 297 296 296 297 296 296 296 296 297 298 298 297 298 298 299 300 300 300 301 301 303 303 305 306 307 308 311 314 317 319
294 294 285 288 278 277 281 282 284 286 287 290 290 291 292 293 294 295 296 296 296 296 296 296 295 294 294 295 296 295 295 295 296 297 296 296 297 298 298 299 300 301 302 303 303 304 306 307 310
291 289 290 289 286 280 277 281 292 288 289 289 289 291 291 292 293 295 296 296 296 295 295 294 293 293 292 293 295 294 293 293 294 294 294 294 295 295 296 296 297 298 298 299 300 299 299 299 301
293 291 291 284 282 285 283 280 291 290 291 291 290 291 291 292 293 295 295 295 294 294 294 293 292 292 292 292 292 292 291 291 290 291 291 292 292 293 294 294 295 296 296 297 295 294 295 295 296
Wind_Speed
6 8 3 5 7 7 6 5 3 5 6 3 8 1 8 8 10 4 4 4 16 16 17 15 12 12 14 13 11 11 11 12 10 9 8 8 8 9 8 8 8 7 7 7 7 7 7 7 8
6 4 5 5 7 8 2 7 5 4 8 6 5 3 2 7 7 6 10 5 15 15 15 15 11 11 13 13 11 9 13 12 11 9 8 7 8 7 7 7 6 6 6 6 5 5 5 5 6
7 6 6 5 7 5 1 4 11 8 6 7 4 3 3 5 7 8 8 12 15 14 14 14 12 12 11 12 10 9 8 10 10 8 7 7 6 7 6 5 4 5 5 5 4 3 3 3 4
5 5 5 9 6 4 6 3 9 8 4 2 3 6 5 6 3 5 13 15 14 13 12 16 11 12 10 13 11 10 9 9 9 8 7 6 6 5 4 3 2 2 3 3 2 2 2 1 1
7 5 7 10 2 3 3 3 6 7 6 6 1 7 5 5 5 8 13 14 14 13 11 13 10 11 10 10 11 10 10 9 8 7 7 6 5 5 4 3 2 1 1 2 1 1 1 2 3
7 4 7 9 6 3 3 3 5 5 2 5 4 1 7 5 7 10 11 12 13 13 11 13 9 9 9 8 7 8 9 8 7 7 6 6 5 5 5 5 5 4 4 3 3 3 4 4 5
12 6 9 2 7 4 3 5 6 4 4 5 3 1 6 7 9 10 7 9 11 12 11 12 12 11 7 7 7 7 7 6 6 5 4 4 4 6 6 7 5 5 5 6 7 7 6 7 7
6 6 4 7 7 5 6 7 1 3 7 2 3 1 7 12 11 9 7 9 11 11 11 11 12 12 11 11 8 7 7 8 9 9 8 5 4 5 6 6 9 9 8 8 8 7 8 9 10
4 6 8 7 4 6 8 7 4 2 4 1 3 7 6 13 11 9 7 7 8 9 10 10 10 11 10 10 10 6 7 7 6 6 6 6 7 9 10 9 3 7 8 9 10 10 10 9 9
7 8 7 7 3 2 8 5 8 6 6 5 6 7 9 11 9 10 9 9 8 11 11 10 10 9 9 7 8 9 10 9 10 9 9 8 9 8 4 3 6 7 9 9 11 11 9 8 8
8 11 2 3 5 1 5 5 1 4 4 3 3 11 8 10 8 8 9 9 11 10 9 11 10 9 9 7 6 5 6 6 6 11 9 8 6 6 6 6 6 7 10 8 9 9 8 10 7
7 10 4 4 3 1 6 3 3 3 8 9 7 5 9 8 9 10 10 10 11 12 13 11 10 10 10 7 7 7 6 6 6 8 9 7 5 6 7 5 6 5 5 7 7 5 7 8 9
11 3 3 2 3 2 0 3 3 3 4 2 4 3 4 6 8 8 7 8 9 10 10 11 11 11 10 10 8 8 8 7 8 8 8 8 8 6 7 7 6 6 6 6 7 7 7 8 9
1 4 4 3 4 2 4 2 2 4 2 3 0 2 2 1 3 4 5 7 8 9 10 11 12 12 11 10 11 8 8 8 8 8 8 11 8 7 7 7 7 7 7 7 7 8 7 7 8
2 5 7 8 5 3 3 7 7 5 1 2 2 1 1 4 2 2 4 6 8 9 9 11 13 12 12 13 11 10 9 8 8 8 10 11 10 10 10 7 7 7 7 9 8 8 8 8 8
6 6 9 10 8 4 5 11 6 3 3 3 2 1 4 8 6 7 6 6 5 8 9 10 9 10 12 12 11 9 9 8 8 9 9 11 12 12 10 8 8 8 7 7 7 7 8 8 8
8 11 15 7 4 5 9 8 10 3 2 1 2 5 6 7 9 10 11 9 7 7 8 9 10 11 12 12 10 10 11 9 9 9 8 11 11 12 10 8 7 9 7 7 7 8 9 8 8
14 15 9 16 4 5 7 8 4 2 5 4 2 8 8 8 10 11 12 11 9 8 9 8 8 10 10 9 8 7 7 7 8 8 8 11 9 11 10 8 9 8 8 8 7 9 8 9 8
11 13 12 5 3 3 6 6 2 7 7 8 8 9 10 10 11 11 12 12 12 12 11 10 9 7 6 7 7 7 6 6 7 7 10 10 10 10 9 8 9 8 8 11 9 8 9 8 7
13 13 14 7 4 1 1 4 8 10 9 9 9 11 11 11 12 13 14 14 14 14 13 12 11 8 6 5 5 5 5 4 3 4 5 5 7 8 7 8 8 8 7 8 8 8 7 7 6
13 12 14 9 6 5 1 2 6 8 10 11 12 13 13 13 13 14 15 15 14 15 14 14 13 12 9 7 4 4 3 3 4 5 2 3 4 5 7 8 7 7 6 7 7 8 9 8 6
17 16 9 9 10 7 1 3 3 5 9 11 11 12 13 14 14 14 15 16 15 14 13 14 14 15 12 12 5 7 4 5 6 6 5 6 7 6 6 7 7 6 5 6 7 7 9 8 8
13 10 11 14 9 4 6 1 4 4 5 9 11 11 12 13 14 14 14 14 15 14 14 13 14 16 15 14 12 7 7 5 5 5 7 7 6 6 6 7 8 8 7 7 8 8 8 7 8
13 13 10 6 3 6 10 9 7 4 6 8 10 10 11 11 13 13 13 13 14 14 13 13 15 15 15 14 14 14 12 10 8 8 7 6 6 6 8 11 9 9 8 8 7 8 8 8 9
10 17 4 5 6 7 3 11 4 7 8 8 8 9 10 11 12 12 13 13 14 15 15 13 16 16 15 14 14 15 15 13 11 10 8 10 8 8 10 11 10 8 10 10 9 9 9 9 9
13 15 7 6 6 8 3 6 7 8 7 7 7 8 10 11 10 11 11 11 12 12 14 14 13 15 14 14 13 12 13 8 8 10 9 8 8 8 11 11 11 11 11 11 10 8 8 10 9
6 6 4 6 2 3 7 5 3 4 7 8 9 9 10 10 10 10 11 11 11 11 12 12 12 12 13 14 12 12 12 12 11 12 11 9 10 10 12 12 12 11 11 11 12 9 11 12 12
4 10 4 2 8 6 6 6 6 10 10 9 8 8 9 9 9 8 9 10 10 10 11 12 12 13 12 13 11 11 11 11 10 10 11 12 11 12 13 13 13 13 12 12 12 10 11 12 10
6 6 2 3 3 3 6 4 11 14 11 9 8 7 7 8 7 8 8 9 9 9 10 10 11 12 13 12 11 11 11 12 11 10 11 11 12 12 12 13 13 13 13 13 12 12 12 14 13
3 2 7 4 4 2 3 5 9 11 8 8 6 6 6 6 6 6 7 8 8 8 9 10 10 11 11 11 11 11 11 12 12 12 13 12 12 12 12 12 12 12 13 13 14 14 13 14 14
Wind_Direction
197 193 238 237 236 243 243 138 31 121 146 61 91 338 25 19 12 51 150 125 136 140 143 160 153 152 148 151 151 154 150 140 131 124 121 118 114 114 111 105 104 100 97 94 94 91 84 73 62
184 202 229 271 253 215 303 112 187 114 77 135 122 138 187 81 62 100 142 161 152 140 147 157 154 152 154 155 157 145 149 137 132 128 125 126 123 121 120 112 108 109 104 102 100 97 85 69 56
264 253 254 235 247 306 107 139 105 108 119 162 153 328 34 64 73 134 108 159 150 145 156 137 151 153 159 160 160 155 145 141 140 136 135 138 135 137 134 131 130 118 109 105 102 98 84 58 44
246 200 229 244 252 70 21 102 124 141 137 216 326 128 107 37 71 113 137 151 147 151 157 133 150 156 162 157 161 163 159 154 153 150 152 155 153 151 149 150 144 126 132 122 110 107 107 67 2
238 256 239 236 187 92 98 10 170 176 137 153 243 111 73 74 87 121 147 154 150 155 152 153 160 159 159 159 173 176 167 164 162 164 169 169 170 167 168 178 184 178 222 222 209 190 248 279 285
248 278 236 216 176 129 123 144 199 178 133 113 200 172 76 98 124 133 151 154 155 154 149 152 152 156 159 166 159 160 163 164 168 175 181 192 198 195 205 216 225 222 226 228 238 245 259 277 284
271 242 244 280 174 160 100 160 190 187 158 106 42 282 87 132 120 127 153 153 177 155 160 163 168 170 157 169 176 177 176 172 170 176 188 208 214 218 226 241 234 248 241 254 254 254 253 262 271
279 274 230 226 198 138 136 158 15 251 85 87 355 79 107 116 123 124 147 192 176 162 173 173 180 179 184 183 184 187 190 189 198 193 192 210 231 233 234 252 235 238 247 252 256 261 263 269 277
278 255 229 201 208 127 151 180 158 72 151 117 63 58 84 117 131 141 146 207 171 176 187 183 183 188 196 200 177 190 217 211 218 201 205 201 244 224 225 224 230 224 249 261 262 261 262 267 266
242 237 253 37 40 169 162 233 153 191 163 165 154 106 119 128 155 165 176 180 187 195 195 191 193 195 201 206 188 209 205 217 220 225 220 217 239 247 274 325 202 238 250 255 256 257 258 257 263
212 247 136 146 47 320 153 213 200 216 184 110 88 135 145 150 176 185 198 199 198 210 211 203 199 202 202 210 212 208 222 216 233 231 232 244 245 245 230 244 221 228 224 246 232 230 229 242 257
239 238 272 109 83 110 167 101 193 278 73 68 60 83 147 177 184 201 200 209 203 208 206 209 218 208 211 218 208 219 219 222 230 233 230 235 237 239 248 248 248 245 254 252 254 260 260 264 261
223 191 207 106 132 97 9 141 3 211 134 90 75 107 154 179 193 200 214 207 211 221 223 217 219 229 219 215 230 224 227 219 235 234 228 229 237 239 249 248 250 252 255 252 256 259 258 259 260
82 220 215 192 173 141 257 174 260 97 135 125 131 78 87 157 189 183 205 223 225 215 226 216 217 227 235 228 226 236 235 240 235 239 236 229 238 244 245 249 249 253 254 256 257 261 264 264 260
167 207 220 209 193 178 242 236 234 106 295 234 198 188 40 45 62 241 258 227 227 226 228 220 221 211 222 238 234 231 236 237 240 237 237 238 235 238 248 250 253 252 250 257 258 261 261 259 260
205 243 204 184 184 136 208 232 126 38 301 276 331 329 58 68 59 30 358 314 268 257 237 229 222 224 217 231 239 236 240 240 240 244 241 237 237 241 244 247 246 249 254 252 253 254 255 257 260
192 217 221 147 228 154 205 227 98 41 7 326 17 48 56 48 48 20 3 355 337 302 268 252 239 231 231 230 237 241 243 242 245 247 247 247 242 239 244 249 255 251 251 249 254 258 259 264 266
194 218 208 226 124 224 177 227 128 68 339 331 1 43 39 38 32 24 19 12 1 349 326 293 267 246 242 244 241 248 252 252 259 259 257 254 251 247 248 252 253 252 250 253 254 256 256 263 273
277 215 199 81 62 232 209 235 254 1 6 20 24 38 38 40 42 33 32 26 22 24 11 350 316 280 248 244 242 248 258 259 268 276 266 267 267 269 263 260 265 266 256 259 258 267 270 265 261
239 205 193 111 99 249 184 236 73 54 40 37 42 49 45 37 35 33 30 31 30 23 18 16 3 336 297 260 268 252 269 270 271 281 256 245 260 271 271 268 266 264 267 265 266 267 270 267 262
207 234 204 193 132 77 216 205 132 75 64 53 54 58 54 47 41 34 34 33 30 30 23 24 22 15 3 335 303 289 26 332 285 267 283 277 240 230 262 266 270 274 271 267 262 261 252 259 255
206 212 288 152 186 208 219 168 169 116 82 64 55 50 49 48 51 45 38 38 35 32 30 32 30 30 24 15 3 2 340 335 357 360 350 345 333 317 305 299 278 263 260 260 265 262 259 259 257
224 148 186 258 235 102 213 152 178 175 101 70 65 59 54 47 46 45 39 38 36 29 30 29 33 32 27 34 31 27 20 2 348 357 346 344 342 333 327 316 318 311 303 283 265 271 265 256 258
132 130 131 147 212 227 193 182 201 184 125 100 75 62 55 52 49 44 38 33 33 28 25 27 30 30 24 25 28 26 25 16 21 9 4 357 0 3 9 353 338 328 312 303 292 283 280 277 275
168 162 128 178 197 236 303 183 90 123 90 83 76 65 57 52 44 38 34 30 27 24 23 24 24 28 24 23 26 24 18 16 18 11 2 1 357 357 0 350 343 336 330 321 313 302 290 280 275
191 185 174 190 195 179 147 213 125 91 92 92 85 73 61 49 47 42 40 36 33 29 28 22 25 23 20 20 19 20 19 13 13 10 2 0 354 348 346 344 342 339 335 331 324 313 302 291 277
167 208 34 102 17 152 145 93 123 127 110 108 91 76 60 50 40 34 36 34 29 29 30 25 24 24 23 19 15 17 14 12 8 5 1 357 350 344 345 344 342 340 337 335 331 322 316 315 310
189 140 140 224 169 206 184 175 149 163 141 128 104 82 61 44 37 31 29 30 29 26 23 27 25 25 19 15 13 11 8 4 2 1 1 355 348 347 343 345 342 340 339 339 339 332 327 319 315
148 177 92 92 350 224 147 107 123 146 141 127 101 73 54 44 31 29 29 29 26 27 23 22 20 18 14 11 5 4 3 359 356 358 356 352 342 344 343 343 338 339 339 341 339 339 332 328 322
35 209 183 209 167 50 334 108 100 119 120 109 99 75 46 40 42 39 45 32 26 23 18 16 15 15 10 4 360 1 358 354 354 353 350 348 342 342 341 341 339 340 344 345 345 336 332 326 324